| time (UTC) | temp F | wind direction | speed knots | gust knots | rain 1hr in | rain 24hr in | rain mn in | humidity % | barometer mb |
| 20260901161632 | 85 | 80 | 4.3 | 11.3 | 0.00 | 0.15 | 0.00 | 87 | 1017.6 |
| 20260901160133 | 87 | 75 | 1.7 | 3.5 | 0.00 | 0.15 | 0.00 | 79 | 1017.6 |
| 20260901154102 | 89 | 64 | 0.9 | 2.6 | 0.00 | 0.15 | 0.00 | 79 | 1017.6 |
| 20260901153602 | 88 | 85 | 1.7 | 3.5 | 0.00 | 0.15 | 0.00 | 80 | 1017.6 |
| 20260901153302 | 88 | 92 | 1.7 | 3.5 | 0.00 | 0.15 | 0.00 | 79 | 1017.7 |
| 20260901153033 | 88 | 92 | 1.7 | 3.5 | 0.00 | 0.15 | 0.00 | 79 | 1017.7 |
| 20260901152502 | 88 | 74 | 0.9 | 3.5 | 0.00 | 0.15 | 0.00 | 81 | 1017.8 |
| 20260901152002 | 88 | 325 | 0.9 | 1.7 | 0.00 | 0.15 | 0.00 | 81 | 1017.8 |
| 20260901151747 | 87 | 346 | 0.9 | 2.6 | 0.00 | 0.15 | 0.00 | 80 | 1017.7 |
| 20260901151432 | 87 | 346 | 0.9 | 2.6 | 0.00 | 0.15 | 0.00 | 80 | 1017.7 |
| 20260901151138 | 87 | 9 | 1.7 | 3.5 | 0.00 | 0.15 | 0.00 | 82 | 1017.7 |
| 20260901150902 | 87 | 9 | 1.7 | 3.5 | 0.00 | 0.15 | 0.00 | 82 | 1017.7 |
| 20260901150402 | 87 | 31 | 1.7 | 3.5 | 0.00 | 0.15 | 0.00 | 85 | 1017.6 |
| 20260901145902 | 87 | 35 | 1.7 | 3.5 | 0.00 | 0.15 | 0.00 | 84 | 1017.7 |
| 20260901145754 | 86 | 56 | 1.7 | 3.5 | 0.00 | 0.15 | 0.00 | 86 | 1017.7 |
| 20260901145403 | 86 | 56 | 1.7 | 3.5 | 0.00 | 0.15 | 0.00 | 86 | 1017.7 |
| 20260901145139 | 86 | 60 | 0.9 | 2.6 | 0.00 | 0.15 | 0.00 | 87 | 1017.7 |
| 20260901144833 | 86 | 60 | 0.9 | 2.6 | 0.00 | 0.15 | 0.00 | 87 | 1017.7 |
| 20260901144332 | 85 | 43 | 0.9 | 2.6 | 0.00 | 0.15 | 0.00 | 88 | 1017.7 |
| 20260901143803 | 84 | 67 | 0.9 | 2.6 | 0.00 | 0.15 | 0.00 | 89 | 1017.7 |
| 20260901142732 | 83 | 46 | 0.9 | 2.6 | 0.00 | 0.15 | 0.00 | 94 | 1017.5 |
| 20260901142202 | 82 | 55 | 0.9 | 1.7 | 0.00 | 0.15 | 0.00 | 95 | 1017.5 |
| 20260901141132 | 81 | 77 | 0.9 | 1.7 | 0.00 | 0.15 | 0.00 | 95 | 1017.6 |
| 20260901140602 | 81 | 80 | 0.9 | 2.6 | 0.00 | 0.15 | 0.00 | 95 | 1017.5 |
| 20260901135032 | 80 | 88 | 1.7 | 3.5 | 0.00 | 0.15 | 0.00 | 97 | 1017.4 |
| 20260901134808 | 80 | 93 | 1.7 | 3.5 | 0.00 | 0.15 | 0.00 | 98 | 1017.3 |
| 20260901134533 | 80 | 93 | 1.7 | 3.5 | 0.00 | 0.15 | 0.00 | 98 | 1017.3 |
| 20260901134002 | 80 | 91 | 1.7 | 3.5 | 0.00 | 0.15 | 0.00 | 98 | 1017.4 |
| 20260901133432 | 80 | 90 | 1.7 | 2.6 | 0.00 | 0.15 | 0.00 | 99 | 1017.3 |
| 20260901132932 | 80 | 84 | 1.7 | 2.6 | 0.00 | 0.15 | 0.00 | 99 | 1017.1 |
| 20260901132402 | 79 | 75 | 0.9 | 2.6 | 0.00 | 0.15 | 0.00 | 99 | 1017.3 |
| 20260901131832 | 79 | 86 | 1.7 | 3.5 | 0.00 | 0.15 | 0.00 | 100 | 1017.1 |
| 20260901130233 | 79 | 63 | 0.9 | 2.6 | 0.00 | 0.15 | 0.00 | 100 | 1017.1 |
| 20260901125703 | 78 | 62 | 0.9 | 1.7 | 0.00 | 0.15 | 0.00 | 100 | 1017.1 |
| 20260901124103 | 77 | 37 | 0.9 | 1.7 | 0.00 | 0.15 | 0.00 | 100 | 1017.0 |
| 20260901123804 | 77 | 37 | 0.9 | 0.9 | 0.00 | 0.15 | 0.00 | 100 | 1017.0 |
| 20260901123602 | 77 | 37 | 0.9 | 0.9 | 0.00 | 0.15 | 0.00 | 100 | 1017.0 |
| 20260901122532 | 77 | 37 | 0.0 | 0.9 | 0.00 | 0.15 | 0.00 | 100 | 1017.0 |
| 20260901121718 | 77 | 37 | 0.0 | 1.7 | 0.00 | 0.15 | 0.00 | 100 | 1016.9 |
| 20260901121502 | 77 | 37 | 0.0 | 1.7 | 0.00 | 0.15 | 0.00 | 100 | 1016.9 |
| 20260901120708 | 77 | 0 | 0.0 | 0.0 | 0.00 | 0.15 | 0.00 | 100 | 1016.8 |
| 20260901120432 | 77 | 0 | 0.0 | 0.0 | 0.00 | 0.15 | 0.00 | 100 | 1016.8 |
| 20260901115902 | 77 | 0 | 0.0 | 0.0 | 0.00 | 0.15 | 0.00 | 100 | 1016.9 |
| 20260901115708 | 77 | 37 | 0.0 | 0.9 | 0.00 | 0.15 | 0.00 | 100 | 1016.8 |
| 20260901115402 | 77 | 37 | 0.0 | 0.9 | 0.00 | 0.15 | 0.00 | 100 | 1016.8 |
| 20260901115214 | 77 | 37 | 0.0 | 0.9 | 0.00 | 0.15 | 0.00 | 100 | 1016.8 |
| 20260901114902 | 77 | 37 | 0.0 | 0.9 | 0.00 | 0.15 | 0.00 | 100 | 1016.8 |
| 20260901114333 | 77 | 37 | 0.0 | 0.9 | 0.00 | 0.15 | 0.00 | 100 | 1016.7 |
| 20260901113803 | 77 | 37 | 0.0 | 0.9 | 0.00 | 0.15 | 0.00 | 100 | 1016.5 |
| 20260901111703 | 76 | 37 | 0.0 | 0.9 | 0.00 | 0.15 | 0.00 | 100 | 1016.5 |
| 20260901110728 | 76 | 37 | 0.0 | 1.7 | 0.00 | 0.15 | 0.00 | 100 | 1016.4 |
| 20260901110603 | 76 | 37 | 0.0 | 1.7 | 0.00 | 0.15 | 0.00 | 100 | 1016.4 |
| 20260901105603 | 77 | 37 | 0.9 | 1.7 | 0.00 | 0.15 | 0.00 | 100 | 1016.5 |
| 20260901104534 | 77 | 37 | 0.9 | 0.9 | 0.00 | 0.15 | 0.00 | 100 | 1016.3 |
| 20260901104256 | 77 | 37 | 0.9 | 1.7 | 0.00 | 0.15 | 0.00 | 100 | 1016.2 |
| 20260901104003 | 77 | 37 | 0.9 | 1.7 | 0.00 | 0.15 | 0.00 | 100 | 1016.2 |
| 20260901103502 | 77 | 37 | 0.9 | 1.7 | 0.00 | 0.15 | 0.00 | 100 | 1016.1 |
| 20260901103325 | 77 | 37 | 0.9 | 1.7 | 0.00 | 0.15 | 0.00 | 100 | 1016.2 |
| 20260901103003 | 77 | 37 | 0.9 | 1.7 | 0.00 | 0.15 | 0.00 | 100 | 1016.2 |
| 20260901102432 | 77 | 37 | 0.9 | 1.7 | 0.00 | 0.15 | 0.00 | 100 | 1016.2 |
| 20260901101933 | 77 | 37 | 0.0 | 0.9 | 0.00 | 0.15 | 0.00 | 100 | 1016.1 |
| 20260901101344 | 77 | 37 | 0.9 | 1.7 | 0.00 | 0.15 | 0.00 | 100 | 1016.0 |
| 20260901100932 | 77 | 37 | 0.9 | 1.7 | 0.00 | 0.15 | 0.00 | 100 | 1016.0 |
| 20260901100432 | 77 | 37 | 0.9 | 1.7 | 0.00 | 0.15 | 0.00 | 100 | 1016.0 |
| 20260901095902 | 77 | 37 | 0.0 | 0.9 | 0.00 | 0.15 | 0.00 | 100 | 1016.0 |
| 20260901095402 | 77 | 37 | 0.0 | 0.9 | 0.00 | 0.15 | 0.00 | 100 | 1015.9 |
| 20260901094902 | 77 | 37 | 0.9 | 0.9 | 0.00 | 0.15 | 0.00 | 100 | 1015.9 |
| 20260901094206 | 77 | 37 | 0.0 | 0.9 | 0.00 | 0.15 | 0.00 | 100 | 1015.6 |
| 20260901093902 | 77 | 37 | 0.0 | 0.9 | 0.00 | 0.15 | 0.00 | 100 | 1015.6 |
| 20260901093635 | 77 | 37 | 0.0 | 0.9 | 0.00 | 0.15 | 0.00 | 100 | 1015.7 |
| 20260901093402 | 77 | 37 | 0.0 | 0.9 | 0.00 | 0.15 | 0.00 | 100 | 1015.7 |
| 20260901093129 | 77 | 37 | 0.0 | 0.9 | 0.00 | 0.15 | 0.00 | 100 | 1015.6 |
| 20260901092833 | 77 | 37 | 0.0 | 0.9 | 0.00 | 0.15 | 0.00 | 100 | 1015.6 |
| 20260901092559 | 77 | 0 | 0.0 | 0.0 | 0.00 | 0.15 | 0.00 | 100 | 1015.6 |
| 20260901092333 | 77 | 0 | 0.0 | 0.0 | 0.00 | 0.15 | 0.00 | 100 | 1015.6 |
| 20260901092136 | 77 | 0 | 0.0 | 0.0 | 0.00 | 0.15 | 0.00 | 100 | 1015.6 |
| 20260901091833 | 77 | 0 | 0.0 | 0.0 | 0.00 | 0.15 | 0.00 | 100 | 1015.6 |
| 20260901091033 | 77 | 37 | 0.0 | 0.9 | 0.00 | 0.15 | 0.00 | 100 | 1015.5 |
| 20260901090732 | 77 | 37 | 0.0 | 0.9 | 0.00 | 0.15 | 0.00 | 100 | 1015.5 |
| 20260901084603 | 77 | 37 | 0.0 | 1.7 | 0.00 | 0.15 | 0.00 | 100 | 1015.5 |
| 20260901084325 | 77 | 37 | 0.0 | 1.7 | 0.00 | 0.15 | 0.00 | 100 | 1015.4 |
| 20260901084032 | 77 | 37 | 0.0 | 1.7 | 0.00 | 0.15 | 0.00 | 100 | 1015.4 |
| 20260901083502 | 77 | 37 | 0.0 | 1.7 | 0.00 | 0.15 | 0.00 | 100 | 1015.4 |
| 20260901083004 | 77 | 37 | 0.9 | 1.7 | 0.00 | 0.15 | 0.00 | 100 | 1015.4 |
| 20260901082503 | 77 | 37 | 0.9 | 1.7 | 0.00 | 0.15 | 0.00 | 100 | 1015.3 |
| 20260901082141 | 77 | 37 | 0.9 | 1.7 | 0.00 | 0.15 | 0.00 | 100 | 1015.3 |
| 20260901081932 | 77 | 37 | 0.9 | 1.7 | 0.00 | 0.15 | 0.00 | 100 | 1015.3 |
| 20260901081402 | 77 | 37 | 0.9 | 1.7 | 0.00 | 0.15 | 0.00 | 100 | 1015.4 |
| 20260901081131 | 77 | 37 | 0.9 | 1.7 | 0.00 | 0.15 | 0.00 | 100 | 1015.4 |
| 20260901080903 | 77 | 37 | 0.9 | 1.7 | 0.00 | 0.15 | 0.00 | 100 | 1015.4 |
| 20260901080708 | 77 | 37 | 0.0 | 1.7 | 0.00 | 0.15 | 0.00 | 100 | 1015.5 |
| 20260901080403 | 77 | 37 | 0.0 | 1.7 | 0.00 | 0.15 | 0.00 | 100 | 1015.5 |
| 20260901075832 | 77 | 37 | 0.0 | 1.7 | 0.00 | 0.15 | 0.00 | 100 | 1015.5 |
| 20260901075307 | 77 | 37 | 0.9 | 1.7 | 0.00 | 0.15 | 0.00 | 100 | 1015.5 |
| 20260901075033 | 77 | 37 | 0.9 | 1.7 | 0.00 | 0.15 | 0.00 | 100 | 1015.5 |
| 20260901074802 | 77 | 37 | 0.9 | 1.7 | 0.00 | 0.15 | 0.00 | 100 | 1015.5 |
| 20260901074302 | 77 | 37 | 0.0 | 1.7 | 0.00 | 0.15 | 0.00 | 100 | 1015.4 |
| 20260901071603 | 77 | 31 | 0.9 | 1.7 | 0.00 | 0.15 | 0.00 | 100 | 1015.8 |
| 20260901071311 | 77 | 13 | 0.9 | 1.7 | 0.00 | 0.15 | 0.00 | 100 | 1015.7 |
| 20260901071032 | 77 | 13 | 0.9 | 1.7 | 0.00 | 0.15 | 0.00 | 100 | 1015.7 |
| 20260901070532 | 77 | 6 | 0.9 | 1.7 | 0.00 | 0.15 | 0.00 | 100 | 1015.9 |
| 20260901070003 | 77 | 10 | 0.9 | 1.7 | 0.00 | 0.15 | 0.00 | 100 | 1015.9 |
| 20260901065503 | 77 | 18 | 0.0 | 1.7 | 0.00 | 0.15 | 0.00 | 99 | 1016.0 |
| 20260901064932 | 77 | 18 | 0.0 | 0.9 | 0.00 | 0.15 | 0.00 | 99 | 1016.1 |
| 20260901063332 | 77 | 26 | 0.9 | 1.7 | 0.00 | 0.15 | 0.00 | 99 | 1016.5 |
| 20260901062142 | 77 | 4 | 0.9 | 1.7 | 0.00 | 0.15 | 0.00 | 100 | 1016.7 |
| 20260901061732 | 77 | 4 | 0.9 | 1.7 | 0.00 | 0.15 | 0.00 | 100 | 1016.7 |
| 20260901061542 | 77 | 350 | 0.9 | 1.7 | 0.00 | 0.15 | 0.00 | 100 | 1016.9 |
| 20260901061233 | 77 | 350 | 0.9 | 1.7 | 0.00 | 0.15 | 0.00 | 100 | 1016.9 |
| 20260901060425 | 77 | 322 | 0.0 | 1.7 | 0.00 | 0.15 | 0.00 | 100 | 1017.2 |
| 20260901060132 | 77 | 322 | 0.0 | 1.7 | 0.00 | 0.15 | 0.00 | 100 | 1017.2 |
| 20260901054329 | 77 | 317 | 0.9 | 0.9 | 0.00 | 0.15 | 0.00 | 99 | 1017.3 |
| 20260901054102 | 77 | 317 | 0.9 | 0.9 | 0.00 | 0.15 | 0.00 | 99 | 1017.3 |
| 20260901053750 | 77 | 317 | 0.9 | 0.9 | 0.00 | 0.15 | 0.00 | 99 | 1017.2 |
| 20260901053532 | 77 | 317 | 0.9 | 0.9 | 0.00 | 0.15 | 0.00 | 99 | 1017.2 |
| 20260901053213 | 77 | 317 | 0.9 | 0.9 | 0.00 | 0.15 | 0.00 | 99 | 1017.3 |
| 20260901053002 | 77 | 317 | 0.9 | 0.9 | 0.00 | 0.15 | 0.00 | 99 | 1017.3 |
| 20260901052432 | 77 | 317 | 0.9 | 0.9 | 0.00 | 0.15 | 0.00 | 99 | 1017.5 |
| 20260901052154 | 77 | 317 | 0.0 | 0.9 | 0.00 | 0.15 | 0.00 | 99 | 1017.5 |
| 20260901051902 | 77 | 317 | 0.0 | 0.9 | 0.00 | 0.15 | 0.00 | 99 | 1017.5 |
| 20260901051645 | 77 | 317 | 0.0 | 0.9 | 0.00 | 0.15 | 0.00 | 99 | 1017.5 |
| 20260901051403 | 77 | 317 | 0.0 | 0.9 | 0.00 | 0.15 | 0.00 | 99 | 1017.5 |
| 20260901050832 | 77 | 317 | 0.0 | 0.9 | 0.00 | 0.15 | 0.00 | 99 | 1017.5 |
| 20260901045803 | 77 | 317 | 0.9 | 0.9 | 0.00 | 0.15 | 0.00 | 99 | 1017.6 |
| 20260901044733 | 77 | 317 | 0.9 | 0.9 | 0.00 | 0.15 | 0.00 | 99 | 1017.7 |
| 20260901044202 | 77 | 317 | 0.9 | 1.7 | 0.00 | 0.15 | 0.00 | 99 | 1017.7 |
| 20260901043104 | 78 | 317 | 0.9 | 1.7 | 0.00 | 0.15 | 0.00 | 99 | 1017.7 |
| 20260901042605 | 78 | 317 | 0.9 | 1.7 | 0.00 | 0.15 | 0.00 | 99 | 1017.7 |
| 20260901042104 | 78 | 316 | 0.9 | 1.7 | 0.00 | 0.15 | 0.00 | 99 | 1017.7 |
| 20260901041034 | 78 | 74 | 0.0 | 1.7 | 0.00 | 0.15 | 0.00 | 99 | 1017.8 |
| 20260901040502 | 78 | 102 | 0.0 | 0.9 | 0.00 | 0.15 | 0.00 | 99 | 1017.8 |
| 20260901040002 | 78 | 102 | 0.0 | 0.9 | 0.00 | 0.15 | 0.00 | 99 | 1017.8 |
| 20260901035433 | 78 | 102 | 0.9 | 1.7 | 0.00 | 0.15 | 0.15 | 99 | 1017.9 |
| 20260901034403 | 78 | 102 | 0.0 | 1.7 | 0.00 | 0.15 | 0.15 | 99 | 1017.7 |
| 20260901033904 | 78 | 102 | 0.0 | 0.9 | 0.00 | 0.15 | 0.15 | 99 | 1017.7 |
| 20260901033334 | 78 | 102 | 0.0 | 0.9 | 0.00 | 0.15 | 0.15 | 99 | 1017.8 |
| 20260901033130 | 78 | 102 | 0.0 | 0.9 | 0.00 | 0.15 | 0.15 | 99 | 1017.8 |
| 20260901032833 | 78 | 102 | 0.0 | 0.9 | 0.00 | 0.15 | 0.15 | 99 | 1017.8 |
| 20260901032334 | 78 | 0 | 0.0 | 0.0 | 0.00 | 0.15 | 0.15 | 98 | 1017.8 |
| 20260901031832 | 78 | 102 | 0.0 | 0.9 | 0.00 | 0.15 | 0.15 | 98 | 1017.9 |
| 20260901031302 | 78 | 102 | 0.0 | 0.9 | 0.00 | 0.15 | 0.15 | 98 | 1017.8 |
| 20260901030804 | 78 | 102 | 0.9 | 0.9 | 0.00 | 0.15 | 0.15 | 98 | 1017.9 |
| 20260901025733 | 78 | 102 | 0.9 | 0.9 | 0.00 | 0.15 | 0.15 | 98 | 1018.1 |
| 20260901025233 | 78 | 102 | 0.0 | 0.9 | 0.00 | 0.15 | 0.15 | 98 | 1018.0 |
| 20260901024732 | 78 | 0 | 0.0 | 0.0 | 0.00 | 0.15 | 0.15 | 98 | 1017.9 |
| 20260901024234 | 78 | 0 | 0.0 | 0.0 | 0.00 | 0.15 | 0.15 | 98 | 1017.8 |
| 20260901023732 | 78 | 0 | 0.0 | 0.0 | 0.00 | 0.15 | 0.15 | 98 | 1017.8 |
| 20260901022203 | 79 | 102 | 0.0 | 1.7 | 0.00 | 0.15 | 0.15 | 97 | 1017.5 |
| 20260901020604 | 79 | 81 | 0.9 | 2.6 | 0.00 | 0.15 | 0.15 | 97 | 1017.3 |
| 20260901020104 | 79 | 72 | 0.9 | 2.6 | 0.00 | 0.15 | 0.15 | 97 | 1017.2 |
| 20260901015815 | 79 | 77 | 0.9 | 1.7 | 0.00 | 0.15 | 0.15 | 97 | 1017.2 |
| 20260901015604 | 79 | 77 | 0.9 | 1.7 | 0.00 | 0.15 | 0.15 | 97 | 1017.2 |
| 20260901015334 | 79 | 81 | 0.9 | 3.5 | 0.00 | 0.15 | 0.15 | 97 | 1017.1 |
| 20260901015104 | 79 | 81 | 0.9 | 3.5 | 0.00 | 0.15 | 0.15 | 97 | 1017.1 |
| 20260901014603 | 79 | 92 | 1.7 | 5.2 | 0.00 | 0.15 | 0.15 | 97 | 1017.1 |
| 20260901013749 | 79 | 110 | 1.7 | 3.5 | 0.00 | 0.15 | 0.15 | 97 | 1017.0 |
| 20260901013534 | 79 | 110 | 1.7 | 3.5 | 0.00 | 0.15 | 0.15 | 97 | 1017.0 |
| 20260901013004 | 79 | 103 | 1.7 | 3.5 | 0.00 | 0.15 | 0.15 | 97 | 1017.1 |
| 20260901012504 | 79 | 95 | 2.6 | 5.2 | 0.00 | 0.15 | 0.15 | 97 | 1016.9 |
| 20260901011503 | 79 | 92 | 2.6 | 6.1 | 0.00 | 0.15 | 0.15 | 97 | 1016.7 |
| 20260901011004 | 79 | 88 | 1.7 | 6.1 | 0.00 | 0.15 | 0.15 | 97 | 1016.7 |
| 20260901010503 | 79 | 84 | 0.9 | 2.6 | 0.00 | 0.15 | 0.15 | 97 | 1016.6 |
| 20260901010002 | 79 | 75 | 0.9 | 2.6 | 0.00 | 0.15 | 0.15 | 97 | 1016.5 |
| 20260901005433 | 79 | 70 | 0.9 | 2.6 | 0.00 | 0.15 | 0.15 | 96 | 1016.6 |
| 20260901004903 | 79 | 73 | 0.9 | 2.6 | 0.00 | 0.15 | 0.15 | 96 | 1016.6 |
| 20260901004333 | 79 | 77 | 0.9 | 2.6 | 0.00 | 0.15 | 0.15 | 97 | 1016.6 |
| 20260901003802 | 79 | 75 | 0.9 | 2.6 | 0.00 | 0.15 | 0.15 | 97 | 1016.7 |
| 20260901002732 | 78 | 75 | 0.0 | 0.9 | 0.00 | 0.15 | 0.15 | 97 | 1016.9 |
| 20260901002203 | 78 | 75 | 0.0 | 0.9 | 0.00 | 0.15 | 0.15 | 96 | 1016.8 |
| 20260901002013 | 78 | 75 | 0.0 | 1.7 | 0.00 | 0.15 | 0.15 | 96 | 1016.7 |
| 20260901001708 | 78 | 75 | 0.0 | 1.7 | 0.00 | 0.15 | 0.15 | 96 | 1016.7 |
| 20260831235732 | 78 | 99 | 2.6 | 5.2 | 0.00 | 0.15 | 0.15 | 96 | 1016.7 |
| 20260831235534 | 78 | 99 | 2.6 | 5.2 | 0.00 | 0.15 | 0.15 | 96 | 1016.7 |
| 20260831234434 | 78 | 95 | 2.6 | 5.2 | 0.00 | 0.15 | 0.15 | 96 | 1016.5 |
| 20260831233333 | 78 | 83 | 1.7 | 5.2 | 0.00 | 0.15 | 0.15 | 96 | 1016.5 |
| 20260831232305 | 78 | 88 | 3.5 | 7.0 | 0.00 | 0.15 | 0.15 | 96 | 1016.4 |
| 20260831232125 | 78 | 95 | 2.6 | 7.0 | 0.00 | 0.15 | 0.15 | 96 | 1016.4 |
| 20260831231734 | 78 | 95 | 2.6 | 7.0 | 0.00 | 0.15 | 0.15 | 96 | 1016.4 |
| 20260831231234 | 78 | 105 | 2.6 | 6.1 | 0.00 | 0.15 | 0.15 | 97 | 1016.4 |
| 20260831224602 | 78 | 101 | 1.7 | 5.2 | 0.00 | 0.15 | 0.15 | 96 | 1016.6 |
| 20260831224350 | 78 | 98 | 0.9 | 2.6 | 0.00 | 0.15 | 0.15 | 96 | 1016.7 |
| 20260831224034 | 78 | 98 | 0.9 | 2.6 | 0.00 | 0.15 | 0.15 | 96 | 1016.7 |
| 20260831223532 | 78 | 81 | 0.9 | 1.7 | 0.00 | 0.15 | 0.15 | 96 | 1016.8 |
| 20260831223312 | 78 | 73 | 0.9 | 2.6 | 0.01 | 0.15 | 0.15 | 96 | 1016.7 |
| 20260831223032 | 78 | 73 | 0.9 | 2.6 | 0.01 | 0.15 | 0.15 | 96 | 1016.7 |
| 20260831222504 | 78 | 75 | 1.7 | 3.5 | 0.01 | 0.15 | 0.15 | 96 | 1016.7 |
| 20260831221636 | 78 | 93 | 2.6 | 7.0 | 0.02 | 0.15 | 0.15 | 96 | 1016.6 |
| 20260831221435 | 78 | 93 | 2.6 | 7.0 | 0.02 | 0.15 | 0.15 | 96 | 1016.6 |
| 20260831220904 | 78 | 99 | 3.5 | 7.0 | 0.04 | 0.15 | 0.15 | 97 | 1016.7 |
| 20260831220336 | 78 | 96 | 2.6 | 7.0 | 0.06 | 0.15 | 0.15 | 97 | 1016.8 |
| 20260831220134 | 78 | 88 | 2.6 | 7.0 | 0.06 | 0.15 | 0.15 | 97 | 1016.8 |
| 20260831215833 | 78 | 88 | 2.6 | 7.0 | 0.06 | 0.15 | 0.15 | 97 | 1016.8 |
| 20260831215332 | 78 | 88 | 2.6 | 6.1 | 0.07 | 0.15 | 0.15 | 97 | 1016.8 |
| 20260831214804 | 78 | 84 | 1.7 | 5.2 | 0.08 | 0.15 | 0.15 | 98 | 1016.8 |
| 20260831214435 | 78 | 62 | 0.9 | 2.6 | 0.08 | 0.15 | 0.15 | 98 | 1016.8 |
| 20260831214232 | 78 | 62 | 0.9 | 2.6 | 0.08 | 0.15 | 0.15 | 98 | 1016.8 |
| 20260831213702 | 78 | 67 | 1.7 | 3.5 | 0.08 | 0.15 | 0.15 | 97 | 1016.9 |
| 20260831212704 | 78 | 81 | 2.6 | 7.0 | 0.08 | 0.14 | 0.14 | 97 | 1016.9 |
| 20260831211602 | 78 | 92 | 4.3 | 8.7 | 0.08 | 0.13 | 0.13 | 98 | 1016.8 |
| 20260831211248 | 78 | 93 | 4.3 | 9.6 | 0.08 | 0.12 | 0.12 | 97 | 1016.8 |
| 20260831211032 | 78 | 93 | 4.3 | 9.6 | 0.08 | 0.12 | 0.12 | 97 | 1016.8 |
| 20260831210533 | 78 | 94 | 4.3 | 9.6 | 0.07 | 0.10 | 0.10 | 97 | 1016.8 |
| 20260831210210 | 78 | 89 | 3.5 | 9.6 | 0.08 | 0.09 | 0.09 | 98 | 1016.9 |
| 20260831210002 | 78 | 89 | 3.5 | 9.6 | 0.08 | 0.09 | 0.09 | 98 | 1016.9 |
| 20260831205712 | 78 | 94 | 4.3 | 7.8 | 0.08 | 0.08 | 0.08 | 97 | 1017.1 |
| 20260831205434 | 78 | 94 | 4.3 | 7.8 | 0.08 | 0.08 | 0.08 | 97 | 1017.1 |
| 20260831204332 | 78 | 90 | 4.3 | 8.7 | 0.07 | 0.07 | 0.07 | 97 | 1016.9 |
| 20260831203832 | 78 | 100 | 6.1 | 10.4 | 0.07 | 0.07 | 0.07 | 98 | 1016.8 |
| 20260831203109 | 78 | 102 | 7.8 | 11.3 | 0.07 | 0.07 | 0.07 | 97 | 1016.7 |
| 20260831202805 | 78 | 102 | 7.8 | 11.3 | 0.07 | 0.07 | 0.07 | 97 | 1016.7 |
| 20260831202234 | 78 | 102 | 7.8 | 13.0 | 0.06 | 0.06 | 0.06 | 97 | 1016.8 |
| 20260831201703 | 78 | 100 | 8.7 | 13.9 | 0.05 | 0.05 | 0.05 | 97 | 1016.8 |
| 20260831201202 | 78 | 100 | 10.4 | 18.2 | 0.04 | 0.04 | 0.04 | 97 | 1016.8 |
| 20260831195602 | 79 | 100 | 12.2 | 20.0 | 0.00 | 0.00 | 0.00 | 94 | 1016.7 |
| 20260831195230 | 80 | 98 | 10.4 | 16.5 | 0.00 | 0.00 | 0.00 | 93 | 1016.5 |
| 20260831195106 | 80 | 98 | 10.4 | 16.5 | 0.00 | 0.00 | 0.00 | 93 | 1016.5 |
| 20260831194532 | 81 | 95 | 8.7 | 18.2 | 0.00 | 0.00 | 0.00 | 92 | 1016.6 |
| 20260831194212 | 81 | 96 | 9.6 | 18.2 | 0.00 | 0.00 | 0.00 | 89 | 1016.7 |
| 20260831194033 | 81 | 96 | 9.6 | 18.2 | 0.00 | 0.00 | 0.00 | 89 | 1016.7 |
| 20260831193004 | 84 | 95 | 16.5 | 26.9 | 0.00 | 0.00 | 0.00 | 85 | 1017.0 |
| 20260831192713 | 85 | 90 | 12.2 | 26.9 | 0.00 | 0.00 | 0.00 | 83 | 1016.6 |
| 20260831192504 | 85 | 90 | 12.2 | 26.9 | 0.00 | 0.00 | 0.00 | 83 | 1016.6 |
| 20260831192128 | 90 | 76 | 3.5 | 12.2 | 0.00 | 0.00 | 0.00 | 72 | 1016.2 |
| 20260831191933 | 90 | 76 | 3.5 | 12.2 | 0.00 | 0.00 | 0.00 | 72 | 1016.2 |
| 20260831191718 | 91 | 55 | 2.6 | 6.1 | 0.00 | 0.00 | 0.00 | 71 | 1016.1 |
| 20260831191434 | 91 | 55 | 2.6 | 6.1 | 0.00 | 0.00 | 0.00 | 71 | 1016.1 |
| 20260831190131 | 93 | 32 | 1.7 | 3.5 | 0.00 | 0.00 | 0.00 | 66 | 1015.9 |
| 20260831185833 | 93 | 32 | 1.7 | 3.5 | 0.00 | 0.00 | 0.00 | 66 | 1015.9 |
| 20260831184632 | 92 | 68 | 1.7 | 6.1 | 0.00 | 0.00 | 0.00 | 70 | 1016.2 |
| 20260831184233 | 92 | 68 | 1.7 | 6.1 | 0.00 | 0.00 | 0.00 | 70 | 1016.2 |
| 20260831183844 | 91 | 45 | 1.7 | 3.5 | 0.00 | 0.00 | 0.00 | 69 | 1016.3 |
| 20260831183703 | 91 | 45 | 1.7 | 3.5 | 0.00 | 0.00 | 0.00 | 69 | 1016.3 |
| 20260831182912 | 91 | 36 | 1.7 | 2.6 | 0.00 | 0.00 | 0.00 | 69 | 1016.3 |
| 20260831182703 | 91 | 36 | 1.7 | 2.6 | 0.00 | 0.00 | 0.00 | 69 | 1016.3 |
| 20260831180819 | 93 | 87 | 0.9 | 2.6 | 0.00 | 0.00 | 0.00 | 68 | 1016.4 |
| 20260831180603 | 93 | 87 | 0.9 | 2.6 | 0.00 | 0.00 | 0.00 | 68 | 1016.4 |
| 20260831175602 | 92 | 85 | 0.9 | 6.1 | 0.00 | 0.00 | 0.00 | 67 | 1016.5 |
| 20260831175033 | 92 | 75 | 0.9 | 3.5 | 0.00 | 0.00 | 0.00 | 72 | 1016.6 |
| 20260831174507 | 91 | 81 | 0.9 | 1.7 | 0.00 | 0.00 | 0.00 | 70 | 1016.6 |
| 20260831174004 | 91 | 70 | 0.9 | 1.7 | 0.00 | 0.00 | 0.00 | 74 | 1016.8 |
| 20260831173813 | 91 | 42 | 0.9 | 2.6 | 0.00 | 0.00 | 0.00 | 71 | 1017.1 |
| 20260831173503 | 91 | 42 | 0.9 | 2.6 | 0.00 | 0.00 | 0.00 | 71 | 1017.1 |
| 20260831173415 | 91 | 40 | 1.7 | 3.5 | 0.00 | 0.00 | 0.00 | 71 | 1017.2 |
| 20260831173002 | 91 | 40 | 1.7 | 3.5 | 0.00 | 0.00 | 0.00 | 71 | 1017.2 |
| 20260831172211 | 91 | 38 | 0.9 | 2.6 | 0.00 | 0.00 | 0.00 | 71 | 1017.2 |
| 20260831171934 | 91 | 38 | 0.9 | 2.6 | 0.00 | 0.00 | 0.00 | 71 | 1017.2 |
| 20260831170833 | 91 | 271 | 0.9 | 3.5 | 0.00 | 0.00 | 0.00 | 71 | 1017.4 |
| 20260831170333 | 91 | 113 | 1.7 | 3.5 | 0.00 | 0.00 | 0.00 | 72 | 1017.4 |
| 20260831165834 | 91 | 100 | 1.7 | 3.5 | 0.00 | 0.00 | 0.00 | 72 | 1017.6 |
| 20260831164803 | 91 | 103 | 1.7 | 2.6 | 0.00 | 0.00 | 0.00 | 73 | 1017.7 |
| 20260831164644 | 91 | 100 | 1.7 | 3.5 | 0.00 | 0.00 | 0.00 | 74 | 1017.8 |
| 20260831164233 | 91 | 100 | 1.7 | 3.5 | 0.00 | 0.00 | 0.00 | 74 | 1017.8 |
| 20260831163933 | 90 | 94 | 1.7 | 3.5 | 0.00 | 0.00 | 0.00 | 77 | 1017.9 |
| 20260831163703 | 90 | 94 | 1.7 | 3.5 | 0.00 | 0.00 | 0.00 | 77 | 1017.9 |
| 20260831161846 | 90 | 82 | 0.9 | 2.6 | 0.00 | 0.00 | 0.00 | 76 | 1018.1 |